Location: Brienzwiler
(46.7508°N, 8.1014°E)
Time: 01:01:34
(UTC+00:00)

Cosmos 1825 - Pass Details

Date: 05 July 2020
Orbit: 502 x 509 km, 82.5° (Epoch: 11 August)

Event Time Altitude Azimuth Distance (km) Brightness Sun altitude
Exits shadow 23:32:54 17° 261° (W) 1,343 4.2 -20.6°
Maximum altitude 23:34:15 20° 289° (WNW) 1,215 4.2 -20.6°
Drops below altitude 10° 23:37:09 10° 339° (NNW) 1,737 5.8 -20.6°
Sets 23:39:43 0° 356° (N) 2,629 7.4 -20.6°
